Wind_Speed
7 7 7 8 7 7 7 6 5 4 4 4 3 3 4 4 3 3 2 2 2 2 2 2 2 1 1 2 2 3 3 4 4 5 5 6 6 6 7 7 7 7 7 7 7 8 8 8 9 9 10 12 13 14 14 15 15 14 13 11 10 9 8 8 8 8 9 9 10 10 11 11 11 10
7 7 7 7 7 7 6 6 5 5 4 3 3 3 3 4 3 3 3 3 2 2 1 1 1 1 1 1 2 3 4 4 5 6 6 6 6 6 6 6 6 6 6 6 7 7 7 7 8 8 9 10 11 12 13 14 15 15 14 13 12 11 9 8 8 8 8 8 8 8 9 9 9 9
7 7 7 7 7 6 6 6 5 5 5 4 4 4 3 3 3 3 3 3 2 2 2 2 2 2 2 3 3 4 4 4 5 5 5 5 5 5 5 5 5 5 5 6 6 7 7 7 7 7 8 9 10 11 11 12 13 14 14 14 14 13 12 11 9 8 7 7 7 7 7 8 8 8
7 7 7 7 6 6 6 5 5 5 5 5 5 5 4 4 3 4 4 3 3 3 3 3 3 4 4 4 4 4 4 4 4 5 5 5 4 4 4 4 4 4 5 5 5 5 5 6 6 6 6 7 9 10 11 11 12 13 13 14 14 14 13 13 11 9 8 7 6 6 6 6 6 7
7 7 7 7 7 7 6 6 5 5 4 4 4 4 4 4 4 4 4 4 4 3 3 4 4 4 5 4 4 4 4 4 4 4 4 4 4 4 3 4 4 4 4 4 4 4 5 5 6 5 5 6 7 8 10 11 12 12 13 13 14 14 14 14 13 12 10 8 6 6 5 5 5 5
8 7 7 7 7 7 7 7 6 5 5 5 4 4 4 4 4 4 4 5 5 4 3 3 3 3 4 3 3 3 3 3 3 3 2 2 3 4 3 3 3 4 5 5 5 5 6 6 6 6 6 5 6 7 8 10 11 12 12 13 13 13 14 14 13 13 11 9 7 6 6 5 4 4
8 8 8 8 7 7 7 7 7 7 7 6 6 5 5 5 5 5 5 5 5 4 3 2 2 2 2 2 2 2 2 2 2 2 1 1 2 4 4 4 4 5 7 7 6 6 6 6 5 5 6 6 6 6 6 8 9 11 12 12 13 13 13 13 13 12 12 11 9 7 6 5 5 4
9 9 9 8 7 6 6 7 7 7 7 7 7 7 6 6 6 6 6 6 7 6 4 3 3 3 3 3 2 2 2 2 2 2 2 2 3 4 5 5 6 7 8 8 7 7 7 5 3 3 5 5 5 5 6 6 7 8 10 11 12 12 12 12 12 11 11 10 9 8 7 5 5 4
9 9 9 8 7 6 6 7 7 7 7 7 7 7 7 7 7 7 7 7 8 8 7 5 4 4 5 5 4 3 3 3 3 3 4 4 5 6 6 7 7 8 8 8 8 8 8 5 3 2 4 5 4 4 4 5 5 6 7 9 10 11 12 12 11 11 10 9 9 8 7 6 5 5
10 10 10 9 8 8 7 7 8 8 8 8 7 7 7 8 8 8 8 8 9 9 8 7 6 6 6 6 5 5 5 5 5 5 5 5 6 7 7 7 8 8 8 8 9 9 8 6 4 3 4 5 4 4 4 4 4 5 6 7 9 10 11 12 12 11 10 9 8 7 7 6 6 5
11 11 12 11 10 10 10 9 9 9 9 9 8 8 8 8 8 8 9 9 10 10 9 9 8 8 7 7 6 5 5 6 6 6 7 6 6 7 8 8 8 9 9 10 10 10 9 7 5 4 4 5 4 4 4 4 5 5 5 6 8 9 11 12 12 12 12 11 9 8 7 6 6 6
13 13 13 13 13 13 12 12 12 11 11 11 11 10 10 10 10 10 10 10 10 11 11 10 10 10 9 8 8 7 7 7 6 7 8 8 8 9 10 11 10 10 12 12 12 11 9 8 7 6 5 5 5 4 4 5 6 6 6 7 8 9 10 11 12 13 13 13 12 11 9 8 7 7
15 15 15 15 15 15 15 15 15 14 14 14 13 13 13 13 12 12 12 12 12 12 12 12 12 12 12 11 11 11 10 9 9 9 10 10 11 11 13 15 14 12 13 15 15 12 9 8 9 8 6 6 6 6 5 6 7 8 8 8 9 9 10 11 11 12 13 13 14 13 13 12 10 9
17 17 17 17 17 17 17 17 17 17 17 16 16 15 15 16 16 16 15 15 14 14 14 14 14 15 15 14 13 13 13 12 11 12 12 12 12 11 13 17 18 15 13 14 16 14 10 9 11 11 9 8 8 8 7 7 8 9 10 10 10 10 11 11 12 12 12 13 14 14 15 15 14 13
18 18 18 18 18 18 18 18 18 18 18 17 17 16 16 16 17 17 17 17 16 15 15 16 16 16 17 17 15 14 14 12 12 12 12 12 12 12 13 16 18 17 13 12 14 16 14 12 12 14 12 9 10 11 10 9 9 10 11 11 11 12 12 12 12 12 13 13 14 14 15 16 16 16
20 19 18 18 18 18 18 18 18 18 18 17 17 17 17 17 17 18 18 18 18 17 16 16 17 17 17 17 18 16 14 13 12 12 11 11 12 12 13 15 17 18 16 12 11 15 17 13 12 14 13 10 11 13 13 12 11 11 12 12 13 13 14 14 14 13 13 14 14 15 16 16 17 17
20 19 19 18 18 18 18 18 18 18 18 18 18 18 18 18 18 18 18 19 19 18 18 18 19 19 18 17 19 19 16 15 15 14 13 13 12 13 14 15 17 19 19 15 12 14 18 15 12 14 15 12 12 15 15 14 13 13 13 13 13 14 15 16 16 15 15 14 15 15 16 17 17 18
22 21 19 19 20 20 20 19 18 18 18 18 19 19 19 19 19 19 19 19 19 19 19 19 20 21 21 20 20 21 20 19 19 18 17 17 16 16 15 16 18 20 20 18 14 14 20 20 16 16 16 14 14 16 17 17 16 16 16 16 16 16 17 17 17 17 16 16 16 16 16 17 18 18
25 24 22 22 22 22 21 20 19 19 19 19 20 20 20 21 21 21 21 21 20 20 20 20 21 22 23 23 23 23 23 22 22 21 20 21 20 19 18 18 20 22 23 22 18 15 18 23 22 19 18 17 17 18 19 18 18 18 19 19 19 19 19 19 18 18 17 17 16 17 17 17 18 18
27 27 26 25 25 25 23 22 21 21 20 21 21 21 21 22 22 23 23 22 22 21 21 21 21 22 23 24 24 25 25 25 25 24 23 23 23 20 19 20 21 23 24 25 24 20 19 22 23 22 21 21 21 22 22 21 20 20 20 20 20 21 21 21 20 19 19 18 17 17 17 18 18 19
29 29 28 28 28 27 27 26 25 24 23 23 23 22 22 23 23 24 25 24 23 23 23 22 22 22 23 24 24 25 26 27 26 25 25 26 25 22 21 21 22 23 24 26 28 25 22 23 24 23 24 24 24 25 26 24 23 21 21 21 22 22 23 23 23 22 21 19 18 18 18 18 18 19
30 30 31 30 30 30 29 29 28 27 26 25 25 24 24 24 25 25 25 25 25 25 25 24 23 23 23 24 24 26 27 28 28 27 26 27 27 25 23 23 23 24 25 28 30 28 24 25 25 25 25 24 25 27 28 26 26 24 23 23 24 24 25 25 25 25 23 21 20 19 19 19 19 20
31 32 32 32 32 32 31 31 30 29 28 27 27 27 26 26 26 26 26 26 26 27 27 27 26 25 25 26 26 26 27 28 28 28 27 27 28 26 25 25 24 24 25 29 32 30 28 27 27 27 26 24 25 28 28 27 27 27 26 25 25 26 26 26 26 26 25 23 22 21 20 20 20 20
32 32 33 33 33 33 33 32 31 31 30 29 29 29 29 28 28 28 27 27 27 27 27 28 28 28 28 28 28 28 28 29 29 29 29 28 29 27 26 26 26 24 25 29 32 31 30 29 30 30 29 26 25 27 28 27 28 29 27 26 26 26 27 27 27 27 26 25 23 22 22 21 21 21
32 33 33 34 34 34 34 34 33 33 32 32 31 31 31 30 30 29 29 29 29 28 28 29 30 30 31 31 30 30 30 31 31 31 30 30 30 30 28 28 27 26 26 29 32 32 30 30 31 32 32 31 28 27 27 28 29 30 29 27 28 28 28 27 27 28 28 26 25 24 23 23 23 23
33 34 35 35 35 35 35 35 35 35 34 34 33 33 33 33 32 32 32 31 31 30 31 31 32 32 33 33 33 33 33 33 33 33 33 32 32 31 31 30 29 28 28 30 32 33 32 31 31 33 33 32 31 29 27 28 30 31 31 30 30 30 30 29 29 29 29 29 27 27 25 24 25 25
35 35 36 36 36 37 37 36 36 36 36 35 35 35 35 35 35 35 34 34 33 32 32 32 33 34 35 35 35 35 36 36 36 36 36 35 35 34 34 33 32 31 32 32 33 34 34 33 32 33 34 33 32 30 29 28 29 30 31 31 31 32 32 32 31 31 32 31 30 29 28 27 26 26
36 36 36 37 38 38 39 39 39 38 37 37 36 36 35 35 36 36 36 35 34 33 33 33 33 34 36 37 37 37 38 38 38 38 38 38 38 37 36 35 35 35 36 35 34 35 35 34 33 33 33 33 32 31 30 30 30 30 30 30 31 33 34 35 35 35 34 34 33 32 31 29 28 27
37 36 37 37 38 39 39 40 40 40 40 39 38 38 37 36 36 36 36 36 36 35 34 34 34 34 35 36 37 38 39 39 40 40 39 39 39 39 37 36 36 37 37 38 37 36 36 35 34 34 33 33 32 32 31 31 31 31 31 30 31 32 34 36 37 38 38 37 36 35 34 33 31 29
38 38 38 39 39 39 39 40 40 41 41 41 40 39 38 37 37 37 37 37 36 36 36 35 35 35 35 36 36 37 38 38 39 39 39 39 39 39 38 37 37 37 38 39 38 37 37 36 36 36 35 34 34 33 33 32 31 31 32 32 32 33 34 37 39 39 40 40 38 36 36 36 35 33
35 36 37 39 38 37 37 37 37 37 37 37 38 39 40 40 40 39 39 38 37 36 36 36 36 36 36 35 35 36 36 37 38 39 39 39 39 38 38 37 37 38 39 39 39 38 37 37 37 37 36 35 34 35 35 34 33 32 33 34 34 34 35 37 39 40 41 41 40 38 37 38 38 37
31 32 33 34 35 34 34 35 35 34 32 32 33 35 37 37 37 37 36 35 34 34 35 36 36 36 36 36 35 35 35 36 37 38 38 38 38 38 37 37 37 38 39 39 39 39 38 38 38 38 37 36 34 35 35 34 34 34 34 34 34 35 37 39 40 41 42 42 41 40 39 39 40 39
34 35 35 35 35 36 36 36 36 36 36 34 34 34 34 34 34 34 34 33 33 34 35 36 36 36 37 37 36 36 36 36 37 38 38 38 39 38 38 37 36 37 38 39 39 40 40 40 40 39 38 37 36 36 35 35 35 35 34 33 33 34 37 40 41 41 42 43 42 42 41 41 42 42
38 38 38 38 39 39 39 39 39 39 39 39 39 38 38 37 37 37 36 36 36 37 37 38 39 39 40 40 40 40 39 39 39 39 39 39 39 39 39 39 38 38 39 39 40 40 41 41 42 41 40 39 39 39 39 38 36 36 35 34 34 34 36 39 40 41 42 42 42 42 42 41 41 42
42 42 41 41 41 42 42 42 43 43 43 43 43 43 42 42 41 41 41 41 41 42 42 42 43 43 43 44 44 44 43 43 43 43 42 41 41 41 41 41 41 41 41 41 41 41 41 42 43 44 43 42 41 40 41 41 40 38 36 36 36 36 36 38 40 40 41 41 41 41 42 41 42 42
44 44 45 45 45 45 45 45 45 45 46 46 46 47 47 46 46 46 46 46 46 47 47 47 48 48 48 48 48 48 48 47 47 47 46 46 45 45 44 44 43 43 43 43 43 44 43 43 43 45 44 44 44 41 40 42 43 41 39 38 37 37 38 39 40 39 40 41 41 41 41 42 42 42
45 45 46 46 46 47 47 47 46 46 47 47 48 48 49 49 49 50 50 51 51 52 52 52 53 53 53 53 53 53 52 52 51 51 50 50 50 49 49 48 47 46 46 45 45 45 46 45 45 46 46 46 46 44 41 41 42 42 41 40 39 39 40 39 39 39 39 40 42 42 41 41 41 42
47 47 47 47 47 48 48 48 48 48 48 49 49 49 50 51 51 51 52 53 54 54 55 55 55 55 56 56 56 56 56 56 55 55 54 54 54 53 53 53 52 51 50 49 48 48 48 48 47 47 47 47 47 46 44 43 41 41 42 43 42 41 42 42 41 40 40 40 41 42 41 40 39 40
50 50 50 50 50 49 50 50 50 50 50 50 51 51 51 52 52 52 53 53 54 55 56 56 56 56 57 57 57 57 57 57 58 57 57 57 57 57 57 56 56 55 54 53 52 52 52 52 52 51 51 50 49 48 48 46 42 40 43 45 45 44 45 45 44 42 41 41 42 43 42 40 38 38
53 52 53 53 53 53 53 53 53 53 53 53 53 54 54 54 54 54 54 55 55 56 57 57 57 58 58 58 58 58 58 58 58 59 59 59 58 59 59 59 58 58 57 57 56 55 55 56 57 57 57 55 54 53 53 51 47 44 44 47 48 48 48 48 47 46 43 43 43 43 42 40 39 38
56 56 55 56 56 56 56 57 57 57 56 56 56 57 57 57 57 57 57 57 57 57 58 58 59 59 60 60 60 59 59 59 59 60 60 60 60 60 60 60 61 60 60 59 58 57 57 58 59 60 60 60 60 59 58 56 54 51 49 49 51 52 52 52 51 50 48 47 46 45 43 41 41 40
60 60 59 59 59 59 59 59 59 60 60 60 60 60 60 60 60 60 60 60 60 60 60 60 60 61 61 61 62 62 61 61 61 61 61 62 62 62 62 62 62 63 62 61 60 59 59 59 60 61 62 62 63 63 62 61 59 57 55 53 54 55 56 56 56 55 54 52 51 50 48 45 45 43
63 63 63 63 62 62 62 62 62 62 62 63 63 63 63 63 63 63 63 63 64 63 63 63 63 63 63 63 63 64 64 64 63 63 63 63 64 64 64 64 64 65 65 64 64 63 62 61 62 62 63 63 64 65 65 63 62 61 59 57 56 57 58 59 60 60 59 58 56 56 54 53 51 48
65 65 65 65 65 66 65 65 65 65 65 65 65 66 66 66 67 67 67 67 67 67 67 67 67 67 67 67 67 67 67 67 67 66 66 66 66 66 66 66 66 66 67 67 66 66 65 65 64 65 65 65 65 66 66 66 65 64 62 61 59 58 59 60 62 62 62 62 60 59 59 59 58 56
66 66 67 67 68 68 68 69 69 69 69 69 69 69 69 69 70 70 70 71 71 71 71 71 71 71 71 71 71 71 71 71 71 71 70 70 69 69 69 69 69 69 69 69 69 69 68 68 67 67 68 67 67 68 68 68 67 67 65 64 62 60 59 59 61 63 63 63 62 62 62 63 62 62
Wind_Direction
203 201 204 207 210 212 213 214 216 222 229 233 240 255 271 284 296 305 320 347 4 357 343 341 341 329 313 321 339 353 354 351 351 357 5 11 13 15 20 27 33 38 41 45 47 47 50 50 45 38 34 32 33 33 32 29 29 31 35 37 36 34 32 30 31 35 39 43 45 47 49 51 54 58
211 209 211 214 217 220 223 226 227 230 235 239 241 251 269 282 291 299 309 329 349 349 336 328 321 299 309 335 357 6 1 354 352 354 0 6 6 11 22 30 38 44 45 52 56 51 50 52 49 42 32 26 26 29 32 30 28 29 33 37 38 36 34 30 27 29 34 39 41 44 45 46 48 50
216 216 219 222 223 225 229 234 237 241 246 252 258 266 277 286 297 311 319 331 342 340 327 318 321 333 344 353 3 6 0 355 353 353 359 5 5 12 29 34 41 51 49 49 51 45 40 41 40 35 29 22 19 23 30 32 30 28 31 36 38 37 34 31 28 26 29 34 37 40 41 41 42 42
221 221 223 230 233 234 235 236 238 241 246 255 264 274 282 288 300 315 325 331 336 335 330 332 337 340 341 350 353 350 346 342 345 355 2 5 8 18 34 36 39 49 46 40 39 34 26 22 20 17 15 14 10 10 18 26 28 27 30 33 35 37 36 32 29 25 25 28 32 35 36 36 35 34
227 227 227 233 238 241 243 244 245 248 255 261 269 277 282 285 293 303 311 317 322 326 325 329 336 334 329 336 341 339 342 340 342 358 7 3 6 16 26 30 30 34 29 17 12 12 7 5 4 2 1 1 359 358 3 13 20 23 26 29 31 33 34 33 31 28 25 24 26 28 29 30 28 24
239 238 238 240 243 246 249 253 257 262 270 277 282 288 293 296 299 302 303 306 312 318 317 316 324 323 316 326 341 343 347 345 349 13 29 10 4 3 3 7 7 5 0 353 353 357 360 3 5 6 7 6 359 355 357 2 8 13 18 24 27 28 29 29 30 29 27 25 23 23 19 18 18 13
247 247 249 252 254 256 259 263 265 269 274 280 286 293 299 303 301 300 302 302 306 314 320 311 314 320 318 325 347 343 338 342 1 30 43 358 351 343 338 335 334 340 346 348 352 356 356 359 7 12 15 16 12 10 8 4 4 6 10 15 19 23 25 25 26 28 29 27 25 24 20 13 7 0
252 253 255 259 262 264 267 269 270 272 274 277 281 284 287 288 288 289 293 297 301 307 315 312 303 307 312 319 330 330 327 335 352 353 330 323 325 321 321 322 324 333 341 345 348 352 350 350 359 7 7 7 8 13 19 17 10 6 6 8 11 15 18 21 23 25 28 30 28 26 23 17 9 359
257 259 261 264 266 267 268 270 272 273 274 273 272 273 274 276 278 280 282 285 288 293 301 303 296 294 300 307 317 322 321 324 328 321 311 310 312 310 311 315 319 327 335 337 338 341 339 335 331 340 348 348 345 351 5 14 11 4 2 4 5 7 9 12 16 19 22 27 28 28 25 18 11 2
264 265 266 268 269 269 268 269 271 273 274 274 273 271 272 273 276 278 279 280 281 282 287 291 292 290 291 296 305 312 313 314 316 310 303 302 306 306 307 311 316 320 324 326 327 329 328 321 308 311 332 338 336 341 352 358 2 3 5 8 7 4 2 1 3 6 9 11 16 19 20 15 8 0
266 268 269 270 270 270 269 267 269 271 273 276 278 279 278 279 280 282 282 282 283 284 285 288 291 290 286 286 289 290 293 300 305 305 301 300 303 304 304 307 311 312 313 314 317 319 318 311 299 299 321 333 334 342 353 353 355 360 3 6 4 360 355 351 349 348 350 351 353 355 359 1 358 352
263 265 266 268 268 267 267 267 268 269 271 272 275 277 278 279 281 282 282 283 285 287 289 290 292 291 288 287 286 284 283 288 293 297 299 301 304 305 302 301 302 305 306 306 308 312 310 302 292 291 306 318 320 325 334 335 334 336 341 347 351 351 348 344 339 336 335 334 334 334 335 335 336 336
259 260 261 263 265 265 266 267 268 269 271 272 274 277 280 282 283 283 283 284 286 287 289 292 292 292 292 292 292 291 289 290 292 294 297 299 301 303 300 296 296 298 301 302 303 306 304 294 288 287 292 299 301 302 310 316 317 318 322 330 337 342 343 340 334 329 326 324 324 323 322 321 320 318
256 257 258 260 262 264 266 268 271 273 275 277 280 283 286 287 288 288 287 287 288 288 289 291 292 293 294 296 296 296 296 298 297 296 296 295 295 295 293 292 292 293 295 297 299 301 298 289 286 285 285 286 286 289 294 301 304 307 312 319 327 334 338 338 333 326 322 319 318 317 316 314 313 310
258 260 262 263 265 267 269 272 274 277 280 283 286 288 288 287 287 287 287 287 286 286 288 290 291 292 293 296 297 297 299 301 298 295 293 291 290 288 284 285 289 291 292 291 291 293 292 287 283 282 281 278 278 282 286 289 293 298 304 311 320 327 330 332 330 325 319 316 314 313 311 309 308 306
260 264 268 270 272 274 275 277 278 280 282 284 284 284 282 280 280 281 282 283 282 282 283 284 285 286 289 293 296 296 296 295 292 289 286 284 283 282 280 280 282 286 289 287 285 287 287 284 279 278 277 273 275 279 281 283 286 291 297 304 313 319 323 323 323 321 317 314 312 310 306 303 301 299
259 263 267 272 274 275 276 277 279 281 283 282 281 280 279 279 278 278 279 281 284 286 286 286 287 289 291 293 294 296 297 295 292 289 286 282 278 276 276 278 278 280 283 284 282 283 286 287 283 279 279 277 276 278 280 283 287 291 294 301 308 312 314 315 316 316 314 312 311 309 305 299 295 292
259 260 262 264 267 270 272 274 278 281 283 284 285 285 285 284 284 283 282 283 285 288 289 290 290 292 295 295 294 296 297 297 296 295 293 291 287 282 282 282 281 282 284 286 282 277 281 287 287 283 283 283 280 280 282 286 290 294 296 300 304 306 307 308 309 310 310 309 309 309 306 300 294 289
264 263 262 262 264 266 269 273 277 280 283 285 286 286 286 285 285 284 282 281 282 283 285 286 287 289 292 293 294 294 295 295 295 294 295 293 291 290 291 289 287 287 289 291 289 276 273 281 285 284 285 286 285 285 284 285 289 293 296 299 301 301 302 303 304 305 305 304 305 306 306 303 296 291
266 268 268 267 268 271 273 274 275 277 278 279 280 281 282 283 284 283 282 282 283 283 283 284 285 286 287 289 291 291 291 291 291 291 292 291 288 289 290 289 287 288 289 291 291 284 275 278 284 286 287 288 289 288 287 286 287 290 292 294 295 296 296 297 299 299 300 299 299 300 302 302 298 293
266 269 271 272 274 275 276 276 275 273 273 272 273 274 276 278 280 281 282 284 285 284 284 283 283 284 284 285 287 287 287 287 288 289 290 289 288 289 289 287 287 288 289 288 286 285 282 281 284 286 287 288 289 288 288 288 288 288 289 289 290 290 291 292 294 295 296 295 294 294 296 298 298 293
265 268 270 272 274 275 276 275 274 273 273 272 271 271 271 272 274 276 279 282 283 284 284 284 283 282 282 281 282 282 283 284 285 286 287 287 288 289 289 288 287 288 289 288 285 285 286 285 285 285 284 285 287 286 287 289 289 288 287 286 285 286 286 288 290 291 292 292 290 290 292 295 297 294
263 265 267 269 270 270 270 270 271 271 271 271 270 270 269 269 270 271 274 276 277 279 282 282 282 281 280 279 278 278 280 281 283 284 284 285 286 287 287 286 285 284 285 285 284 286 287 287 286 285 283 283 284 285 287 288 289 288 287 284 283 284 284 285 287 288 289 289 288 289 291 293 295 294
259 261 262 264 265 266 266 266 267 268 268 269 269 270 270 269 269 270 272 273 273 275 277 279 280 280 279 278 278 278 279 281 282 284 284 285 285 285 285 284 283 283 282 281 281 283 285 286 286 286 284 283 282 283 286 288 288 288 287 286 285 284 284 284 285 286 286 287 288 289 290 292 293 293
255 258 259 261 262 264 265 265 266 267 267 268 269 270 271 272 272 272 272 273 274 274 275 276 277 278 278 278 279 280 281 282 283 284 284 284 285 286 285 284 283 283 281 279 279 280 281 281 282 283 283 282 281 282 284 287 288 288 288 288 287 286 285 285 285 285 285 285 286 286 287 290 292 292
252 255 258 260 261 263 264 265 266 266 267 267 268 269 270 271 272 272 272 273 274 275 275 276 276 276 277 278 279 281 282 283 284 284 284 283 283 285 286 286 285 284 282 280 280 280 279 278 278 278 278 279 280 281 282 283 284 286 287 288 287 286 285 284 283 283 284 284 284 284 285 287 288 290
253 255 257 259 260 262 263 263 264 265 266 266 266 267 268 269 270 271 272 272 273 273 274 274 275 275 276 277 278 279 281 282 283 284 284 284 284 285 286 286 285 284 284 283 282 280 278 277 276 276 277 278 279 279 279 279 278 280 282 284 285 285 284 283 282 281 280 281 281 282 283 284 285 288
253 255 257 259 260 262 263 263 264 264 264 264 265 265 265 267 268 270 271 271 271 271 272 272 273 274 274 275 276 277 278 279 281 282 283 284 285 285 286 286 285 285 285 285 283 280 279 278 277 276 276 277 278 278 276 275 274 274 275 277 279 281 281 281 280 279 278 279 279 280 280 281 284 287
254 256 258 260 263 265 265 266 267 266 265 264 264 263 264 265 266 268 269 270 270 270 271 272 273 273 273 274 275 275 276 277 278 279 280 282 283 284 284 284 285 285 285 284 283 282 281 280 279 277 277 277 278 277 276 273 272 272 272 271 271 273 275 277 277 278 278 278 279 280 282 283 285 286
252 252 254 258 261 262 263 265 266 267 266 264 263 264 265 266 267 268 269 269 270 270 271 272 274 274 274 274 275 275 275 276 276 277 278 279 280 281 282 283 283 283 283 283 283 282 281 281 280 279 279 280 279 278 276 274 272 272 272 270 268 267 269 272 273 275 277 278 279 281 283 284 285 285
250 249 250 252 254 254 256 259 262 264 264 262 261 262 264 266 268 270 270 270 269 269 270 271 273 274 275 276 276 277 277 277 277 277 277 277 278 279 280 281 281 280 280 281 281 280 280 280 281 280 280 281 281 281 279 277 275 273 271 269 268 266 267 268 271 273 275 277 279 280 280 281 282 283
259 256 255 254 253 254 256 258 261 263 265 263 260 260 262 264 266 268 269 269 268 268 268 269 271 273 274 275 276 277 277 277 277 277 277 278 277 277 278 279 279 278 277 278 278 278 278 279 279 280 281 282 282 282 281 281 280 277 274 271 269 268 268 268 268 270 272 274 276 277 277 277 278 278
263 263 262 262 261 261 261 262 263 264 266 266 265 265 264 265 266 267 268 269 268 267 267 268 269 271 272 273 274 274 274 275 276 276 277 278 278 277 277 277 277 276 275 274 274 275 276 277 278 279 280 282 282 282 281 282 282 282 280 277 274 271 270 270 270 269 270 271 273 275 275 276 276 276
262 263 263 264 264 264 264 264 264 265 266 267 267 267 267 267 267 268 268 268 268 268 268 268 269 270 271 272 272 272 272 272 272 273 275 276 277 277 277 276 275 275 274 274 273 272 272 274 275 276 278 279 281 282 281 280 280 281 282 282 280 276 274 273 272 271 271 271 271 273 274 274 275 275
259 260 261 261 261 262 262 263 263 264 265 265 266 267 267 267 267 267 267 267 267 268 268 269 269 270 271 271 272 272 272 272 272 272 273 273 274 274 275 275 274 273 273 273 273 272 271 270 271 273 274 275 277 279 281 281 281 280 281 281 281 280 278 276 274 273 273 272 271 272 273 274 274 275
258 259 259 260 260 261 261 262 262 263 263 264 265 266 266 266 266 266 266 266 266 267 267 268 268 269 270 270 271 271 271 272 272 272 272 272 272 272 273 273 273 273 272 272 271 271 270 269 269 270 271 272 273 274 277 280 281 282 282 281 280 279 278 277 277 277 276 275 274 272 272 273 275 276
258 258 259 260 261 261 262 263 263 263 264 264 264 265 266 266 266 266 266 267 267 267 267 267 268 268 269 269 269 270 270 271 271 271 271 271 271 271 271 271 271 271 271 271 271 271 270 270 269 268 269 269 270 270 271 273 277 281 282 281 281 280 278 276 276 277 276 276 276 276 275 274 274 276
261 261 261 261 261 261 262 263 263 264 264 265 265 266 266 266 266 266 266 267 267 268 268 268 268 268 269 269 269 270 270 270 271 271 271 271 271 271 271 271 270 270 270 270 270 270 271 271 270 269 269 269 269 269 268 268 271 276 279 280 280 280 279 279 277 276 276 276 276 277 277 277 276 275
263 263 264 264 264 263 263 263 263 264 264 265 265 266 266 266 267 267 267 267 268 268 269 269 269 269 269 269 269 270 270 270 271 271 271 271 271 271 271 271 271 270 270 269 269 269 270 271 271 270 269 268 268 269 268 267 266 269 273 276 277 277 278 279 279 277 276 275 275 275 276 277 277 276
263 264 264 265 265 266 266 265 265 265 264 264 265 265 265 266 266 267 267 267 268 268 269 269 270 270 270 270 270 270 270 270 270 271 271 271 271 271 272 272 271 271 270 270 269 269 269 269 270 270 270 270 269 269 269 269 268 266 268 271 274 275 275 276 277 277 277 276 275 274 274 275 276 275
267 266 266 265 265 266 266 266 267 267 266 266 266 266 266 266 266 266 266 267 267 267 267 268 269 269 269 270 270 270 269 269 269 270 270 271 271 271 271 271 271 271 271 270 270 270 270 269 269 270 270 270 270 269 269 269 269 269 268 269 271 273 274 275 275 275 276 276 276 275 275 275 274 273
269 269 269 268 267 267 266 266 266 267 267 267 266 266 266 266 266 267 267 267 267 267 267 267 267 268 268 269 269 269 269 269 269 269 269 269 270 270 270 270 270 271 271 270 270 269 269 269 269 270 270 270 271 271 270 270 269 269 269 269 270 272 274 275 275 275 275 275 275 276 276 275 274 274
267 268 268 269 269 268 268 267 267 266 266 266 266 266 266 266 266 266 266 266 267 267 267 267 267 267 268 268 268 269 269 269 269 269 268 268 268 268 269 269 269 270 270 270 270 270 269 269 269 269 269 270 270 271 271 271 270 270 269 268 268 269 271 273 274 275 275 275 275 276 276 276 275 275
266 266 267 267 268 268 268 268 268 267 267 266 266 266 266 266 266 266 266 266 266 266 266 267 267 267 268 268 268 268 269 269 269 269 268 268 268 268 268 268 268 268 269 269 269 269 269 269 269 269 268 269 269 270 270 271 271 270 270 269 268 267 268 269 271 273 274 275 275 276 276 275 275 275
265 265 266 266 267 267 268 268 268 268 268 268 267 267 266 266 266 266 266 266 266 266 266 266 266 267 267 267 267 268 268 269 269 269 269 268 268 268 268 268 268 268 268 268 268 268 268 268 268 269 269 268 268 269 269 270 270 270 270 270 269 268 267 267 268 269 271 272 273 274 274 274 275 275
Height
5974 5975 5975 5976 5976 5976 5977 5977 5978 5978 5978 5978 5978 5979 5979 5979 5979 5978 5978 5978 5978 5977 5977 5977 5977 5977 5977 5977 5977 5977 5977 5977 5977 5977 5976 5976 5976 5975 5975 5974 5974 5973 5973 5972 5971 5971 5970 5969 5968 5967 5966 5965 5965 5964 5963 5962 5961 5960 5959 5959 5958 5958 5957 5957 5957 5956 5956 5955 5955 5954 5954 5954 5953 5953
5974 5974 5975 5975 5976 5976 5977 5977 5978 5978 5978 5978 5979 5979 5979 5979 5979 5978 5978 5978 5978 5978 5978 5978 5977 5977 5977 5977 5977 5977 5977 5977 5977 5977 5976 5976 5976 5975 5975 5974 5974 5973 5973 5972 5971 5971 5970 5969 5968 5968 5967 5966 5965 5964 5963 5962 5962 5961 5960 5959 5959 5958 5958 5957 5957 5957 5956 5956 5956 5955 5955 5954 5954 5954
5973 5974 5974 5975 5975 5976 5976 5977 5977 5978 5978 5978 5978 5979 5979 5979 5979 5978 5978 5978 5978 5978 5978 5978 5978 5978 5978 5978 5978 5978 5977 5977 5977 5977 5976 5976 5976 5975 5975 5974 5974 5973 5973 5972 5971 5971 5970 5969 5969 5968 5967 5966 5965 5965 5964 5963 5962 5961 5961 5960 5959 5958 5958 5958 5957 5957 5957 5957 5956 5956 5955 5955 5955 5954
5973 5973 5974 5974 5974 5975 5975 5976 5976 5977 5977 5977 5978 5978 5978 5978 5978 5978 5978 5978 5978 5978 5978 5978 5978 5978 5978 5978 5978 5977 5977 5977 5976 5976 5976 5976 5975 5975 5974 5974 5973 5973 5972 5972 5971 5971 5970 5969 5969 5968 5967 5967 5966 5965 5964 5964 5963 5962 5961 5961 5960 5959 5958 5958 5958 5957 5957 5957 5957 5956 5956 5956 5955 5955
5972 5972 5973 5973 5973 5974 5974 5975 5975 5975 5976 5976 5977 5977 5977 5977 5977 5977 5977 5977 5977 5977 5977 5977 5977 5977 5977 5977 5977 5976 5976 5976 5975 5975 5975 5975 5974 5974 5973 5973 5973 5972 5972 5971 5971 5970 5970 5969 5968 5968 5967 5967 5966 5965 5965 5964 5963 5963 5962 5961 5960 5960 5959 5958 5958 5958 5957 5957 5957 5957 5957 5956 5956 5955
5972 5972 5972 5972 5972 5973 5973 5974 5974 5975 5975 5975 5976 5976 5976 5976 5976 5976 5976 5976 5976 5976 5976 5976 5976 5976 5976 5975 5975 5975 5975 5975 5974 5974 5974 5974 5974 5973 5973 5972 5972 5972 5971 5971 5970 5970 5969 5969 5968 5967 5967 5966 5966 5965 5965 5964 5964 5963 5962 5962 5961 5960 5959 5959 5958 5958 5958 5957 5957 5957 5957 5957 5956 5956
5971 5971 5971 5971 5972 5972 5973 5973 5973 5974 5974 5974 5975 5975 5975 5975 5975 5975 5975 5975 5975 5975 5975 5975 5975 5975 5975 5974 5974 5974 5974 5974 5974 5974 5974 5973 5973 5973 5972 5972 5972 5971 5971 5970 5970 5969 5969 5968 5968 5967 5967 5966 5966 5965 5965 5964 5964 5963 5962 5962 5961 5960 5960 5959 5958 5958 5957 5957 5957 5956 5956 5956 5956 5956
5971 5971 5971 5971 5971 5972 5972 5972 5972 5973 5973 5973 5973 5974 5974 5974 5974 5974 5974 5974 5974 5974 5974 5974 5974 5974 5974 5974 5974 5974 5974 5974 5973 5973 5973 5973 5973 5972 5972 5971 5971 5971 5970 5970 5969 5969 5968 5968 5968 5967 5967 5966 5966 5965 5965 5964 5964 5963 5962 5962 5961 5960 5960 5959 5958 5958 5957 5957 5957 5956 5956 5956 5955 5955
5970 5970 5970 5970 5970 5971 5971 5971 5971 5971 5972 5972 5972 5972 5972 5972 5973 5973 5973 5973 5973 5973 5973 5973 5974 5974 5973 5973 5973 5973 5973 5973 5973 5973 5973 5972 5972 5971 5971 5971 5970 5970 5969 5969 5968 5968 5968 5967 5967 5967 5966 5966 5965 5965 5964 5964 5963 5963 5962 5962 5961 5960 5959 5959 5958 5958 5957 5957 5956 5956 5956 5955 5955 5955
5969 5969 5969 5969 5970 5970 5970 5970 5970 5970 5970 5971 5971 5971 5971 5971 5971 5972 5972 5972 5972 5972 5972 5972 5972 5973 5973 5972 5972 5972 5972 5972 5972 5972 5972 5971 5971 5970 5970 5969 5969 5968 5968 5968 5967 5967 5967 5966 5966 5966 5966 5966 5965 5964 5964 5963 5963 5962 5962 5961 5960 5960 5959 5959 5958 5958 5957 5957 5956 5956 5955 5955 5955 5954
5968 5968 5968 5968 5968 5968 5969 5969 5969 5969 5969 5970 5970 5970 5971 5971 5971 5971 5971 5971 5971 5971 5971 5971 5972 5972 5971 5971 5971 5971 5971 5971 5971 5970 5970 5970 5969 5969 5968 5968 5967 5967 5966 5966 5966 5966 5965 5965 5965 5965 5965 5965 5965 5964 5963 5963 5962 5962 5961 5961 5960 5959 5959 5958 5958 5957 5957 5956 5956 5955 5955 5955 5954 5954
5966 5966 5966 5966 5967 5967 5967 5967 5967 5968 5968 5968 5969 5969 5970 5970 5970 5970 5970 5970 5970 5970 5970 5970 5970 5970 5970 5970 5970 5970 5970 5970 5969 5969 5968 5968 5968 5968 5967 5966 5966 5966 5965 5964 5964 5964 5964 5964 5964 5964 5964 5964 5964 5963 5963 5962 5961 5961 5960 5960 5959 5959 5958 5958 5957 5957 5956 5956 5956 5955 5955 5954 5954 5953
5963 5964 5964 5964 5965 5965 5965 5965 5966 5966 5967 5967 5968 5968 5969 5969 5970 5970 5970 5970 5970 5969 5969 5969 5969 5969 5969 5969 5969 5969 5969 5969 5969 5968 5968 5967 5967 5966 5965 5964 5964 5965 5964 5963 5962 5963 5963 5962 5962 5962 5963 5963 5962 5962 5962 5961 5961 5960 5960 5959 5958 5958 5957 5957 5956 5956 5955 5955 5954 5954 5954 5954 5953 5952
5960 5961 5962 5962 5962 5963 5963 5964 5965 5965 5966 5966 5967 5968 5968 5968 5968 5969 5968 5969 5968 5968 5968 5968 5968 5967 5967 5967 5967 5967 5967 5968 5968 5967 5967 5966 5966 5965 5964 5962 5962 5963 5963 5962 5961 5961 5961 5961 5961 5960 5961 5961 5961 5960 5960 5960 5959 5959 5958 5958 5957 5957 5956 5956 5955 5954 5954 5953 5953 5952 5952 5952 5952 5951
5958 5959 5960 5960 5960 5961 5961 5962 5963 5964 5965 5966 5966 5967 5967 5967 5967 5966 5966 5966 5967 5967 5967 5966 5966 5966 5965 5965 5965 5966 5966 5966 5966 5965 5965 5965 5964 5964 5963 5962 5960 5960 5962 5962 5960 5959 5959 5960 5959 5958 5958 5959 5959 5958 5958 5958 5957 5957 5957 5956 5956 5955 5954 5954 5954 5953 5952 5952 5951 5950 5950 5950 5949 5949
5957 5957 5958 5959 5959 5959 5960 5960 5961 5962 5963 5964 5965 5965 5965 5965 5964 5964 5963 5963 5963 5964 5964 5964 5963 5963 5963 5963 5962 5963 5963 5963 5963 5963 5963 5963 5963 5962 5961 5961 5959 5958 5959 5960 5960 5958 5957 5957 5957 5956 5956 5957 5957 5956 5955 5955 5955 5955 5955 5954 5953 5953 5952 5952 5951 5951 5951 5950 5949 5948 5947 5947 5946 5946
5955 5956 5956 5957 5957 5958 5958 5959 5960 5961 5961 5962 5962 5962 5962 5962 5962 5962 5961 5961 5961 5961 5962 5962 5961 5961 5961 5961 5960 5960 5961 5961 5961 5961 5960 5960 5960 5960 5959 5959 5958 5956 5956 5957 5958 5957 5954 5954 5955 5954 5954 5954 5955 5954 5953 5953 5953 5953 5952 5952 5951 5950 5950 5949 5949 5949 5948 5948 5947 5946 5945 5944 5943 5943
5952 5953 5954 5954 5954 5955 5956 5957 5958 5959 5959 5959 5959 5959 5960 5959 5959 5959 5959 5959 5959 5960 5960 5960 5959 5959 5958 5959 5959 5958 5958 5958 5958 5958 5959 5958 5958 5958 5958 5957 5956 5954 5954 5954 5956 5956 5953 5951 5952 5952 5951 5952 5952 5951 5950 5950 5950 5950 5949 5949 5948 5948 5947 5947 5946 5946 5945 5945 5945 5944 5943 5942 5940 5940
5950 5951 5951 5951 5951 5952 5953 5954 5956 5956 5956 5957 5957 5957 5957 5956 5956 5956 5956 5956 5957 5957 5957 5957 5957 5956 5956 5956 5956 5955 5955 5955 5955 5955 5956 5956 5955 5956 5956 5956 5954 5953 5952 5952 5953 5954 5952 5949 5949 5950 5949 5949 5949 5948 5947 5947 5947 5947 5946 5946 5945 5945 5944 5944 5943 5943 5943 5942 5942 5941 5940 5939 5938 5937
5947 5948 5949 5949 5949 5950 5951 5952 5953 5953 5953 5953 5953 5953 5953 5953 5953 5952 5952 5953 5954 5954 5955 5955 5954 5954 5953 5953 5952 5952 5951 5951 5951 5951 5952 5951 5951 5953 5953 5953 5952 5951 5950 5949 5948 5950 5951 5948 5947 5947 5947 5947 5946 5945 5944 5944 5944 5944 5943 5943 5943 5942 5941 5941 5940 5940 5940 5939 5939 5938 5937 5936 5936 5934
5944 5945 5946 5946 5947 5947 5948 5948 5949 5949 5950 5950 5950 5950 5950 5950 5950 5949 5949 5950 5950 5950 5951 5951 5951 5951 5950 5950 5949 5948 5948 5947 5947 5948 5948 5947 5947 5949 5949 5949 5949 5948 5947 5946 5944 5945 5947 5946 5944 5945 5945 5944 5944 5943 5941 5940 5940 5940 5940 5940 5939 5939 5938 5938 5937 5937 5936 5936 5935 5935 5934 5933 5933 5932
5941 5942 5942 5943 5944 5944 5944 5945 5945 5946 5946 5946 5947 5947 5947 5947 5946 5946 5946 5946 5947 5946 5947 5947 5947 5947 5947 5946 5946 5945 5944 5943 5943 5944 5944 5944 5943 5945 5945 5945 5945 5945 5944 5942 5939 5940 5942 5942 5941 5941 5941 5941 5941 5939 5938 5937 5937 5936 5937 5936 5936 5935 5934 5934 5933 5933 5932 5932 5932 5931 5931 5930 5929 5928
5937 5938 5939 5939 5940 5940 5940 5941 5941 5941 5942 5942 5943 5943 5943 5943 5943 5942 5943 5943 5943 5943 5943 5943 5943 5943 5943 5942 5942 5941 5940 5940 5940 5940 5941 5940 5940 5941 5941 5941 5941 5942 5941 5938 5935 5936 5937 5937 5936 5936 5937 5938 5938 5935 5934 5934 5933 5932 5932 5932 5932 5931 5930 5930 5929 5929 5928 5928 5928 5928 5927 5927 5926 5925
5933 5934 5934 5935 5935 5936 5936 5937 5937 5937 5938 5938 5938 5939 5939 5940 5940 5939 5939 5939 5939 5940 5940 5939 5939 5939 5939 5938 5938 5938 5937 5936 5936 5936 5937 5937 5936 5937 5937 5937 5937 5938 5937 5935 5932 5932 5933 5933 5932 5931 5931 5932 5933 5932 5931 5931 5929 5928 5928 5928 5927 5927 5926 5925 5925 5924 5924 5924 5924 5924 5923 5923 5922 5922
5929 5929 5930 5931 5931 5932 5932 5933 5933 5933 5934 5934 5934 5934 5934 5935 5935 5936 5935 5935 5935 5936 5936 5936 5935 5935 5934 5934 5933 5933 5933 5932 5932 5932 5932 5932 5932 5932 5933 5933 5933 5934 5933 5931 5928 5929 5929 5929 5928 5927 5926 5926 5927 5928 5928 5927 5926 5924 5924 5923 5923 5922 5921 5921 5920 5920 5919 5919 5919 5919 5919 5919 5918 5918
5924 5925 5926 5927 5927 5928 5928 5928 5929 5929 5930 5930 5930 5930 5930 5930 5930 5931 5931 5931 5931 5931 5931 5931 5931 5931 5930 5930 5930 5929 5929 5928 5928 5927 5927 5928 5928 5928 5928 5928 5928 5929 5928 5926 5925 5924 5925 5925 5924 5922 5921 5922 5922 5923 5924 5924 5922 5920 5920 5919 5918 5917 5916 5916 5916 5915 5914 5914 5914 5914 5914 5914 5914 5913
5920 5920 5921 5922 5923 5924 5924 5924 5924 5925 5925 5926 5926 5925 5925 5925 5925 5926 5926 5926 5926 5927 5927 5927 5927 5926 5926 5926 5926 5925 5925 5924 5923 5923 5922 5922 5923 5923 5923 5923 5923 5923 5923 5922 5921 5919 5919 5920 5920 5918 5917 5917 5918 5919 5920 5920 5919 5917 5916 5915 5914 5913 5912 5911 5911 5910 5909 5908 5909 5909 5909 5909 5909 5909
5915 5916 5917 5918 5919 5919 5919 5919 5919 5920 5920 5921 5921 5921 5921 5921 5921 5921 5921 5921 5922 5922 5922 5922 5922 5922 5921 5921 5921 5921 5920 5919 5919 5919 5918 5918 5917 5918 5918 5918 5918 5917 5916 5916 5916 5915 5913 5914 5914 5914 5913 5913 5914 5914 5914 5914 5914 5913 5912 5911 5910 5908 5907 5906 5906 5905 5904 5904 5903 5903 5903 5904 5904 5905
5910 5911 5912 5913 5914 5914 5915 5915 5914 5915 5915 5915 5915 5916 5916 5916 5916 5916 5917 5917 5917 5917 5917 5917 5917 5917 5917 5917 5917 5916 5916 5915 5914 5914 5914 5913 5913 5912 5913 5913 5913 5911 5910 5910 5910 5909 5908 5908 5908 5908 5908 5908 5908 5909 5909 5909 5909 5908 5908 5907 5906 5904 5902 5901 5900 5899 5899 5898 5898 5899 5899 5899 5899 5900
5905 5906 5907 5908 5909 5909 5909 5910 5910 5909 5909 5909 5910 5910 5911 5911 5911 5911 5911 5912 5912 5912 5912 5912 5912 5912 5912 5912 5912 5911 5911 5910 5909 5909 5909 5908 5908 5907 5908 5908 5908 5906 5905 5904 5904 5903 5903 5903 5902 5902 5902 5902 5902 5903 5903 5903 5903 5903 5903 5901 5901 5900 5898 5896 5894 5894 5893 5893 5894 5895 5895 5894 5894 5895
5900 5900 5901 5902 5903 5904 5904 5904 5905 5904 5904 5904 5904 5905 5905 5905 5905 5905 5906 5906 5906 5906 5906 5906 5906 5906 5907 5907 5907 5906 5906 5905 5904 5904 5904 5903 5903 5902 5902 5903 5902 5901 5899 5898 5898 5898 5898 5897 5896 5896 5896 5896 5896 5896 5896 5896 5897 5897 5897 5896 5895 5895 5894 5892 5890 5889 5888 5888 5888 5890 5890 5889 5888 5888
5895 5896 5897 5897 5898 5899 5899 5899 5899 5899 5899 5899 5899 5900 5900 5900 5900 5900 5900 5900 5901 5901 5901 5901 5901 5901 5901 5901 5901 5901 5901 5900 5899 5898 5898 5898 5897 5897 5897 5897 5897 5896 5895 5894 5893 5892 5892 5891 5890 5890 5890 5890 5890 5890 5890 5890 5890 5890 5890 5890 5890 5889 5888 5887 5886 5885 5884 5883 5883 5884 5884 5883 5882 5881
5891 5891 5892 5893 5893 5894 5894 5894 5894 5894 5894 5894 5894 5895 5895 5895 5895 5895 5895 5896 5896 5896 5896 5896 5896 5896 5896 5896 5896 5896 5896 5895 5893 5893 5893 5892 5892 5891 5891 5892 5892 5891 5890 5889 5888 5887 5886 5885 5885 5885 5884 5884 5884 5884 5884 5884 5884 5883 5884 5885 5885 5884 5882 5881 5880 5880 5879 5878 5878 5877 5877 5877 5876 5875
5885 5886 5886 5887 5887 5888 5888 5889 5889 5889 5889 5889 5889 5889 5889 5890 5890 5890 5890 5891 5891 5891 5891 5890 5890 5890 5890 5890 5890 5890 5890 5889 5888 5887 5887 5887 5886 5886 5886 5886 5886 5885 5884 5884 5884 5883 5882 5880 5879 5879 5879 5878 5878 5878 5877 5877 5878 5878 5878 5878 5878 5878 5877 5875 5874 5873 5872 5872 5872 5871 5871 5871 5870 5869
5879 5880 5880 5881 5881 5882 5882 5882 5883 5883 5883 5883 5883 5883 5883 5884 5884 5884 5884 5884 5884 5884 5884 5884 5884 5884 5884 5884 5884 5884 5884 5883 5883 5882 5881 5881 5880 5880 5880 5880 5880 5879 5878 5878 5878 5877 5877 5875 5873 5872 5873 5873 5873 5873 5871 5870 5870 5872 5873 5873 5872 5871 5870 5869 5867 5867 5866 5866 5865 5865 5865 5865 5864 5862
5874 5874 5874 5874 5875 5875 5875 5876 5876 5876 5876 5876 5876 5877 5877 5877 5877 5877 5877 5877 5877 5877 5877 5877 5877 5877 5877 5877 5877 5877 5877 5877 5877 5876 5875 5875 5874 5874 5873 5873 5874 5873 5873 5872 5871 5870 5870 5870 5868 5867 5866 5866 5866 5868 5868 5865 5863 5864 5865 5866 5865 5864 5863 5861 5861 5861 5860 5859 5858 5858 5858 5858 5858 5856
5867 5868 5868 5868 5868 5868 5869 5869 5869 5870 5870 5870 5870 5870 5870 5870 5870 5870 5870 5870 5870 5870 5870 5870 5870 5870 5870 5870 5870 5870 5870 5870 5870 5869 5869 5868 5868 5867 5867 5866 5866 5866 5866 5866 5865 5864 5863 5863 5862 5861 5860 5860 5859 5861 5863 5861 5859 5858 5857 5857 5858 5857 5855 5855 5855 5855 5854 5853 5851 5851 5851 5852 5852 5851
5860 5861 5861 5861 5861 5862 5862 5862 5862 5863 5863 5863 5863 5863 5863 5863 5863 5863 5863 5863 5862 5862 5862 5862 5862 5862 5862 5862 5862 5862 5862 5862 5862 5861 5861 5861 5860 5860 5860 5859 5859 5859 5859 5859 5859 5857 5856 5855 5855 5854 5853 5853 5852 5853 5854 5855 5856 5854 5851 5850 5850 5849 5847 5847 5848 5848 5848 5846 5845 5844 5844 5845 5846 5846
5853 5854 5854 5854 5854 5855 5855 5855 5855 5855 5856 5856 5856 5855 5856 5856 5855 5856 5856 5855 5855 5854 5854 5854 5854 5854 5854 5854 5854 5854 5854 5854 5854 5853 5853 5853 5852 5852 5852 5852 5852 5852 5851 5851 5851 5851 5849 5848 5847 5846 5845 5845 5845 5845 5845 5847 5850 5851 5847 5843 5842 5843 5841 5839 5839 5840 5841 5840 5838 5837 5838 5839 5839 5839
5846 5846 5846 5846 5847 5847 5847 5847 5847 5848 5848 5848 5848 5848 5848 5848 5848 5848 5848 5848 5847 5847 5846 5846 5846 5846 5846 5846 5846 5846 5846 5846 5845 5845 5844 5844 5844 5844 5843 5843 5843 5843 5843 5843 5844 5844 5842 5840 5839 5838 5837 5836 5837 5837 5836 5837 5841 5844 5843 5838 5835 5834 5834 5833 5831 5832 5833 5833 5831 5830 5832 5832 5833 5832
5837 5838 5838 5839 5839 5839 5839 5839 5839 5839 5840 5840 5840 5840 5840 5840 5840 5840 5840 5839 5839 5839 5838 5838 5838 5837 5837 5837 5837 5837 5837 5837 5837 5836 5836 5835 5835 5835 5834 5834 5834 5834 5834 5834 5835 5835 5834 5833 5831 5829 5828 5827 5827 5827 5828 5829 5831 5834 5836 5834 5830 5827 5826 5825 5824 5823 5824 5824 5823 5823 5825 5825 5825 5824
5827 5828 5829 5829 5830 5830 5831 5831 5831 5831 5831 5831 5831 5831 5831 5831 5831 5831 5831 5831 5830 5830 5830 5830 5830 5829 5828 5828 5828 5828 5828 5828 5828 5828 5827 5826 5826 5826 5826 5825 5824 5824 5824 5825 5825 5826 5825 5824 5823 5821 5820 5819 5818 5817 5818 5820 5821 5823 5826 5827 5825 5821 5818 5816 5815 5815 5815 5815 5815 5814 5816 5816 5816 5816
5818 5819 5819 5819 5819 5820 5821 5821 5822 5822 5822 5822 5822 5822 5822 5822 5822 5822 5822 5821 5821 5821 5821 5821 5821 5820 5820 5819 5819 5818 5818 5818 5818 5818 5818 5817 5817 5817 5817 5816 5815 5814 5814 5814 5815 5815 5815 5815 5814 5813 5811 5811 5809 5807 5807 5809 5811 5812 5814 5817 5817 5816 5812 5809 5807 5805 5805 5806 5806 5806 5805 5805 5805 5807
5810 5810 5810 5810 5810 5810 5811 5811 5812 5812 5812 5813 5813 5813 5812 5812 5812 5812 5812 5811 5811 5811 5811 5811 5811 5811 5810 5810 5809 5809 5808 5808 5807 5807 5807 5807 5807 5806 5806 5806 5806 5805 5804 5804 5804 5805 5805 5804 5804 5803 5802 5802 5800 5798 5798 5798 5799 5800 5802 5804 5807 5808 5806 5803 5800 5798 5797 5797 5797 5797 5796 5795 5794 5795
5801 5801 5801 5801 5801 5801 5801 5801 5801 5801 5801 5801 5802 5802 5802 5802 5802 5802 5801 5801 5801 5801 5801 5801 5801 5801 5800 5800 5800 5799 5798 5797 5797 5796 5796 5796 5796 5796 5795 5795 5795 5795 5794 5793 5793 5793 5794 5794 5794 5793 5792 5791 5791 5789 5788 5788 5789 5789 5791 5792 5794 5796 5797 5796 5794 5791 5789 5789 5789 5788 5786 5786 5785 5785